User: anonymous   Login
Location: Newark
(55.5030°N, 22.7200°E)
Time: 22:20:17
(UTC+00:00)
Language:

Altair - Orbit

View from above orbital plane
View from above orbital plane
View from above satellite
View from above satellite

Ground track
Ground track

The orbit data is extracted from the following two-line orbital elements,

1    50U 60009B   20144.57158059 -.00000082 +00000-0 +23112-4 0  9995
2    50 047.2296 198.4960 0114495 251.4470 107.3852 12.20111939667184
Epoch (UTC): 23 May 2020 13:43:04
Eccentricity: 0.0114495
inclination: 47.2296°
perigee height: 1501 km
apogee height: 1683 km
right ascension of ascending node: 198.4960°
argument of perigee: 251.4470°
revolutions per day: 12.20111939
mean anomaly at epoch: 107.3852°
orbit number at epoch: 66718

The dashed part of the orbit path shows where the satellite is in the earth's shadow,  

DLR